[[{"header":{"parameterUnit":"m.s-1","parameterCategory":1,"la1":30.2991,"la2":30.254,"lo1":-89.0895,"lo2":-89.0444,"dy":0.0017,"dx":0.0017,"nx":28,"ny":28,"refTime":"2026-01-02T09:00:00:Z","depth":0,"parameterNumber":2,"parameterNumberName":"U-component_of_WINDS"},"data":[0,0,0,0,0,0,0,0,0,0,0,0,0,0,0,0,0,0,0,0,0,0,0,0,0,0,0,0,0,0,0,0,0,0,0,0,0,0,0,0,0,0,0,0,0,0,0,0,0,0,0,0,0,0,0,0,0,0,3.2086,3.2086,0,3.2083,3.2083,3.2083,3.2089,3.2089,3.2089,3.2089,3.2089,3.2089,3.2089,0,0,0,0,0,0,0,0,0,0,0,0,0,3.2101,3.2101,3.2086,3.2086,3.2085,3.2083,3.2083,3.2083,3.2089,3.2089,3.2089,3.2089,3.2089,3.2089,3.2089,0,0,0,0,0,0,0,0,0,0,0,0,0,3.2096,3.2101,3.2086,3.2088,3.2088,3.2083,3.2083,3.2083,3.2088,3.2089,3.2089,3.2089,3.2089,3.2089,3.2089,3.2082,0,0,3.2088,3.2088,0,0,0,0,0,0,0,0,3.2096,3.2096,3.2088,3.2088,3.2088,3.2086,3.2088,3.2083,3.2088,3.2088,3.2089,3.2089,3.2088,3.2088,3.2087,3.2082,3.2082,3.2088,3.2088,3.2088,3.2087,0,0,0,0,0,0,0,3.2097,3.2096,3.2085,3.2088,3.2088,3.2091,3.2091,3.2087,3.2087,3.2088,3.2089,3.2088,3.2088,3.2087,3.2087,3.2082,3.2088,3.2088,3.2087,3.2087,3.2077,3.2077,0,0,0,0,0,0,3.2096,3.2096,3.2085,3.2085,3.2093,3.2091,3.209,3.2087,3.2087,3.2087,3.2088,3.2089,3.2087,3.2087,3.2087,3.2082,3.2088,3.2087,3.2087,3.2077,3.2077,3.2077,0,0,0,0,0,0,3.2097,3.2095,3.2085,3.209,3.2089,3.209,3.2086,3.2086,3.2085,3.2087,3.2087,3.2087,3.2088,3.2087,3.2084,3.2082,3.2087,3.2087,3.2077,3.2077,3.2077,3.2071,0,0,0,0,0,0,3.2097,3.2095,3.2091,3.209,3.2089,3.208,3.2086,3.2086,3.2085,3.2085,3.2085,3.2086,3.2088,3.2084,3.2084,3.2082,3.2087,3.2077,3.2077,3.2077,3.2071,3.207,3.207,0,0,0,0,0,3.2097,3.2089,3.209,3.2089,3.2083,3.208,3.2079,3.2081,3.2084,3.2081,3.2083,3.2086,3.2083,3.2084,3.2083,3.2081,3.2078,3.2077,3.2077,3.2071,3.207,3.207,0,0,0,0,0,0,3.2088,3.2088,3.209,3.2081,3.208,3.2081,3.2076,3.2079,3.2078,3.2079,3.2082,3.2083,3.208,3.208,3.2082,3.2078,3.2081,3.2081,3.2077,3.2076,3.2076,3.2076,3.2087,0,0,0,0,0,3.2085,3.2081,3.2082,3.2073,3.2073,3.2075,3.2073,3.2075,3.2075,3.2075,3.2076,3.2077,3.2078,3.2077,3.2076,3.2072,3.2074,3.2071,3.207,3.2069,3.2069,3.2071,3.2071,3.2076,3.2076,3.2076,0,0,3.2078,3.2078,3.2075,3.2072,3.2071,3.2069,3.2075,3.2071,3.207,3.2075,3.2072,3.2074,3.2076,3.2073,3.2072,3.2073,3.2069,3.2069,3.2069,3.2069,3.2071,3.2071,3.207,3.2076,3.2076,3.2076,0,0,3.2065,3.2063,3.2058,3.2059,3.2059,3.2061,3.206,3.2061,3.2063,3.206,3.2065,3.2066,3.2064,3.2066,3.2067,3.2061,3.2065,3.2061,3.2057,3.206,3.2059,3.2059,3.206,3.2059,3.2061,3.2061,3.2061,0,3.2057,3.2052,3.2055,3.2052,3.2052,3.2058,3.2054,3.2055,3.2055,3.2056,3.2058,3.206,3.2061,3.2061,3.206,3.206,3.2061,3.2061,3.2059,3.2059,3.2058,3.2059,3.2059,3.2061,3.2061,3.2061,3.2061,0,3.2044,3.2041,3.2037,3.2038,3.2038,3.2035,3.204,3.204,3.2043,3.2046,3.2047,3.2049,3.2051,3.2052,3.2054,3.2054,3.2055,3.2058,3.2061,3.2058,3.2059,3.2059,3.206,3.206,3.206,3.206,0,0,3.2021,3.2028,3.2026,3.2029,3.2032,3.2031,3.203,3.2032,3.2034,3.2035,3.2037,3.2038,3.2042,3.2044,3.2047,3.2049,3.2049,3.2052,3.2053,3.2053,3.2052,3.2051,3.2051,3.2052,3.2052,3.2052,3.2053,0,3.201,3.2008,3.2013,3.201,3.201,3.2018,3.2018,3.2021,3.2025,3.2028,3.2033,3.2035,3.2038,3.204,3.2042,3.2048,3.2049,3.2048,3.2055,3.2056,3.2055,3.2051,3.2048,3.2049,3.2053,3.2053,3.2053,0,3.1996,3.1998,3.1995,3.2003,3.2003,3.2003,3.2008,3.2009,3.2015,3.2019,3.2023,3.2028,3.2031,3.2035,3.2042,3.2041,3.2045,3.2049,3.205,3.2051,3.2054,3.2053,3.2049,3.205,3.2053,3.2053,3.2053,0,3.1983,3.1985,3.1985,3.1987,3.1995,3.1995,3.1999,3.2005,3.2008,3.2014,3.2016,3.2022,3.2025,3.2031,3.204,3.2041,3.2047,3.205,3.2052,3.2052,3.2052,3.2052,3.205,3.2053,3.2053,3.2053,3.2053,0,3.197,3.1969,3.198,3.1979,3.198,3.1988,3.1989,3.1993,3.2,3.2004,3.2011,3.2014,3.2025,3.203,3.2037,3.2044,3.2045,3.205,3.2052,3.2049,3.2049,3.2052,3.2053,3.2053,3.2053,3.2053,3.2053,0,3.1954,3.1961,3.1962,3.1972,3.1974,3.1974,3.1983,3.1986,3.1992,3.1997,3.1998,3.2009,3.2016,3.2025,3.2035,3.2041,3.2047,3.2049,3.2045,3.2046,3.2049,3.2049,3.2049,3.205,3.2051,3.2051,3.2051,0,3.1946,3.1945,3.1956,3.1959,3.1962,3.1966,3.197,3.1979,3.1983,3.1993,3.1995,3.2004,3.201,3.2023,3.2033,3.2042,3.2046,3.2045,3.2047,3.2046,3.2049,3.2049,3.2051,3.2045,3.2045,3.2044,3.2044,0,3.1931,3.1936,3.194,3.1947,3.1952,3.1958,3.1964,3.1967,3.1978,3.1983,3.1991,3.1997,3.2009,3.2018,3.203,3.2037,3.2044,3.2044,3.2046,3.2043,3.2042,3.2045,3.2045,3.2044,3.2044,3.2044,3.2044,3.2044,3.192,3.1922,3.193,3.1937,3.1943,3.195,3.1954,3.1962,3.1969,3.1979,3.1985,3.1994,3.2006,3.2022,3.2029,3.2038,3.204,3.2041,3.2042,3.2042,3.2043,3.204,3.204,3.204,3.204,3.204,3.204,0,3.1908,3.1915,3.192,3.193,3.1936,3.1943,3.1952,3.1957,3.1964,3.1974,3.1982,3.1994,3.2005,3.2017,3.2029,3.2035,3.2039,3.2038,3.2038,3.204,3.2039,3.2038,3.2035,3.2035,3.2035,3.2035,3.2035,3.2035,3.1902,3.1906,3.1913,3.1922,3.193,3.1938,3.1944,3.1952,3.196,3.1973,3.1982,3.199,3.2003,3.2017,3.2028,3.2032,3.2037,3.2036,3.2041,3.2039,3.204,3.204,3.2039,3.2036,3.2036,3.2041,3.2041,3.2041]},{"header":{"parameterUnit":"m.s-1","parameterCategory":1,"la1":30.2991,"la2":30.254,"lo1":-89.0895,"lo2":-89.0444,"dy":0.0017,"dx":0.0017,"nx":28,"ny":28,"refTime":"2026-01-02T09:00:00:Z","depth":0,"parameterNumber":3,"parameterNumberName":"V-component_of_WINDS"},"data":[0,0,0,0,0,0,0,0,0,0,0,0,0,0,0,0,0,0,0,0,0,0,0,0,0,0,0,0,0,0,0,0,0,0,0,0,0,0,0,0,0,0,0,0,0,0,0,0,0,0,0,0,0,0,0,0,0,0,1.081,1.0811,0,1.0835,1.0836,1.0836,1.0844,1.0844,1.0844,1.0844,1.0868,1.0868,1.0869,0,0,0,0,0,0,0,0,0,0,0,0,0,1.077,1.077,1.081,1.0811,1.0811,1.0835,1.0836,1.0836,1.0844,1.0844,1.0844,1.0844,1.0867,1.0868,1.0869,0,0,0,0,0,0,0,0,0,0,0,0,0,1.079,1.077,1.081,1.0818,1.0819,1.0835,1.0836,1.0836,1.0844,1.0844,1.0844,1.0844,1.0867,1.0868,1.0869,1.0879,0,0,1.0873,1.0873,0,0,0,0,0,0,0,0,1.0789,1.0792,1.0817,1.0818,1.0819,1.0837,1.083,1.0851,1.0844,1.0835,1.0844,1.0844,1.0857,1.0859,1.0864,1.088,1.0881,1.0873,1.0873,1.0874,1.0874,0,0,0,0,0,0,0,1.0788,1.0791,1.082,1.0817,1.0818,1.082,1.0823,1.0834,1.0846,1.0835,1.0836,1.0839,1.0858,1.0863,1.0865,1.0882,1.0873,1.0874,1.0874,1.0875,1.0909,1.0909,0,0,0,0,0,0,1.0785,1.0789,1.0819,1.0821,1.0803,1.0821,1.0824,1.0831,1.0846,1.0849,1.0839,1.0839,1.0861,1.0864,1.0866,1.0879,1.0874,1.0875,1.0876,1.0909,1.0909,1.0909,0,0,0,0,0,0,1.0784,1.0788,1.0818,1.0805,1.081,1.0822,1.0829,1.0831,1.0837,1.0849,1.0851,1.0842,1.0861,1.0864,1.0876,1.088,1.0875,1.0876,1.0908,1.0909,1.0909,1.0906,0,0,0,0,0,0,1.0783,1.0787,1.0791,1.0805,1.081,1.0829,1.083,1.0832,1.0839,1.0839,1.0853,1.0855,1.0861,1.0875,1.0877,1.0882,1.0877,1.0908,1.0909,1.0909,1.0906,1.0906,1.0907,0,0,0,0,0,1.0781,1.0788,1.0791,1.0795,1.0815,1.0829,1.0832,1.0839,1.0839,1.0843,1.0851,1.0854,1.0879,1.0876,1.0879,1.0884,1.0908,1.0909,1.0909,1.0906,1.0906,1.0907,0,0,0,0,0,0,1.0773,1.079,1.0794,1.0806,1.0816,1.083,1.0835,1.084,1.085,1.085,1.0859,1.0862,1.0873,1.088,1.0875,1.0895,1.0894,1.0895,1.089,1.0891,1.0891,1.0889,1.0878,0,0,0,0,0,1.0773,1.0783,1.0797,1.0806,1.0811,1.0823,1.0829,1.0834,1.0845,1.0849,1.0858,1.0868,1.0879,1.0885,1.0895,1.0907,1.0911,1.0912,1.0912,1.0913,1.0913,1.0922,1.0923,1.0911,1.0911,1.0911,0,0,1.0772,1.0783,1.0788,1.0805,1.0814,1.0824,1.0826,1.0836,1.0844,1.085,1.0863,1.087,1.0882,1.0894,1.09,1.09,1.0918,1.0913,1.0913,1.0914,1.0922,1.0923,1.0924,1.0912,1.0911,1.0911,0,0,1.0775,1.0784,1.0794,1.0803,1.0816,1.0824,1.0826,1.0841,1.0846,1.0859,1.0864,1.0874,1.0891,1.09,1.0906,1.0915,1.0919,1.0918,1.092,1.0928,1.0929,1.093,1.0934,1.0935,1.0919,1.0919,1.0919,0,1.0772,1.0788,1.0798,1.0808,1.0816,1.0824,1.0834,1.0842,1.0857,1.0862,1.0862,1.0885,1.0894,1.0909,1.0911,1.0916,1.092,1.0917,1.0928,1.0929,1.093,1.0934,1.0935,1.0919,1.0919,1.0919,1.0919,0,1.0784,1.0795,1.0801,1.0818,1.0826,1.0836,1.0847,1.0855,1.086,1.0868,1.0881,1.0892,1.0905,1.0909,1.0914,1.0926,1.0925,1.0926,1.0926,1.0931,1.0935,1.0936,1.0919,1.0919,1.0919,1.0919,0,0,1.0782,1.0805,1.0807,1.0815,1.0832,1.084,1.0851,1.0865,1.0871,1.0882,1.0892,1.0908,1.0909,1.0917,1.0923,1.093,1.0938,1.093,1.0931,1.0932,1.0952,1.0951,1.0953,1.094,1.094,1.0941,1.0952,0,1.0788,1.0808,1.0818,1.0834,1.0845,1.0853,1.0863,1.0874,1.0882,1.0893,1.0901,1.0913,1.0914,1.0919,1.0926,1.0935,1.0942,1.0934,1.0949,1.095,1.0946,1.0955,1.0953,1.0963,1.0953,1.0953,1.0953,0,1.0797,1.081,1.0827,1.0844,1.0849,1.0857,1.0872,1.0881,1.0895,1.09,1.091,1.0916,1.0928,1.0927,1.0944,1.0939,1.0946,1.0951,1.0952,1.0954,1.0952,1.0957,1.0966,1.0968,1.0956,1.0956,1.0955,0,1.0795,1.0816,1.0829,1.0836,1.0856,1.0862,1.087,1.0883,1.0892,1.0904,1.091,1.0923,1.093,1.094,1.095,1.0948,1.0967,1.0966,1.0972,1.0972,1.0975,1.0975,1.0986,1.0979,1.0979,1.0979,1.0979,0,1.0801,1.0811,1.0829,1.0837,1.0849,1.0861,1.0873,1.0882,1.0894,1.0904,1.0912,1.0921,1.0934,1.0945,1.0953,1.0967,1.0969,1.0974,1.0976,1.0974,1.0973,1.0978,1.0978,1.098,1.098,1.0979,1.0979,0,1.0799,1.0812,1.0827,1.0845,1.085,1.0858,1.0874,1.0882,1.0892,1.0905,1.0909,1.0923,1.0937,1.0948,1.0965,1.0971,1.0985,1.0987,1.0981,1.0982,1.0987,1.0987,1.1002,1.1005,1.0996,1.0996,1.0996,0,1.0802,1.0811,1.083,1.0838,1.0847,1.0859,1.0868,1.0881,1.0889,1.0907,1.0913,1.0928,1.094,1.0962,1.0974,1.0988,1.099,1.0995,1.0992,1.099,1.0991,1.099,1.0992,1.0995,1.0995,1.0995,1.0995,0,1.0806,1.0812,1.0825,1.0841,1.0851,1.0864,1.0877,1.0883,1.0897,1.0907,1.0922,1.0932,1.0951,1.0965,1.0981,1.0989,1.0995,1.0996,1.0998,1.0995,1.0992,1.0995,1.0982,1.0995,1.0995,1.0995,1.0995,1.0995,1.0807,1.0816,1.0831,1.0846,1.0857,1.0869,1.0879,1.089,1.0903,1.092,1.0926,1.0942,1.0956,1.0978,1.0987,1.0999,1.1,1.1003,1.1004,1.1004,1.1004,1.099,1.1002,1.1002,1.1002,1.1002,1.1002,0,1.0812,1.0823,1.0836,1.0855,1.0867,1.0872,1.0887,1.0896,1.091,1.0923,1.0936,1.0954,1.0968,1.0982,1.0998,1.1005,1.1008,1.1009,1.1008,1.1011,1.1003,1.1,1.1006,1.1006,1.1006,1.1006,1.1006,1.1006,1.0816,1.0831,1.0839,1.0861,1.0872,1.0888,1.0896,1.0907,1.0918,1.0938,1.0951,1.096,1.0974,1.0991,1.1005,1.1009,1.1015,1.1015,1.1019,1.1011,1.1011,1.101,1.1007,1.1016,1.1016,1.1026,1.1026,1.1026]}]]